This is the latest recevied weather packets stored in our database for station/object SQ9NFI-4. If no packets are shown the sender has not sent any weather packets the latest 10 day(s).
| Time | Temp. | Humidity | Pressure | Rain* | Wind** | Luminosity | Snow |
|---|---|---|---|---|---|---|---|
| 1777386315 | 14.44° C | 18% | 1022.7 hPa | 0 mm | - | 357 W/m² | - |
| 1777386015 | 13.89° C | 20% | 1022.7 hPa | 0 mm | - | 368 W/m² | - |
| 1777385715 | 13.89° C | 20% | 1022.7 hPa | 0 mm | - | 383 W/m² | - |
| 1777385415 | 13.89° C | 23% | 1023 hPa | 0 mm | - | 395 W/m² | - |
| 1777385115 | 14.44° C | 21% | 1023 hPa | 0 mm | - | 408 W/m² | - |
| 1777384815 | 13.89° C | 21% | 1023 hPa | 0 mm | - | 419 W/m² | - |
| 1777384515 | 13.33° C | 21% | 1023 hPa | 0 mm | - | 434 W/m² | - |
| 1777384215 | 13.33° C | 20% | 1023 hPa | 0 mm | - | 448 W/m² | - |
| 1777383915 | 13.89° C | 22% | 1023 hPa | 0 mm | - | 456 W/m² | - |
| 1777383615 | 13.89° C | 22% | 1023 hPa | 0 mm | - | 472 W/m² | - |
| 1777383315 | 13.89° C | 22% | 1023 hPa | 0 mm | - | 481 W/m² | - |
| 1777383015 | 14.44° C | 21% | 1023 hPa | 0 mm | - | 488 W/m² | - |
| 1777382715 | 13.89° C | 22% | 1023 hPa | 0 mm | - | 491 W/m² | - |
| 1777382415 | 13.89° C | 22% | 1023 hPa | 0 mm | - | 515 W/m² | - |
| 1777382115 | 14.44° C | 23% | 1023 hPa | 0 mm | - | 525 W/m² | - |
| 1777381815 | 13.89° C | 23% | 1023.4 hPa | 0 mm | - | 538 W/m² | - |
| 1777381515 | 14.44° C | 25% | 1023.4 hPa | 0 mm | - | 550 W/m² | - |
| 1777381215 | 13.89° C | 24% | 1023.4 hPa | 0 mm | - | 556 W/m² | - |
| 1777380915 | 13.89° C | 23% | 1023.4 hPa | 0 mm | - | 567 W/m² | - |
| 1777380615 | 13.89° C | 23% | 1023.4 hPa | 0 mm | - | 576 W/m² | - |
| 1777380315 | 13.33° C | 22% | 1023.4 hPa | 0 mm | - | 572 W/m² | - |
| 1777380015 | 13.33° C | 25% | 1023.4 hPa | 0 mm | - | 583 W/m² | - |
| 1777379715 | 13.33° C | 23% | 1023.4 hPa | 0 mm | - | 589 W/m² | - |
| 1777379415 | 13.89° C | 23% | 1023.4 hPa | 0 mm | - | 600 W/m² | - |
| 1777379115 | 13.89° C | 22% | 1023.4 hPa | 0 mm | - | 606 W/m² | - |
* Rain latest hour (hover to see other rain measurements)
** Current wind speed in m/s (hover to see current wind gust speed)